Regional Weather Roundup
Issued by NWS

Home | Current Version | Previous Version | Text Only | Print | Product List | Glossary Off
Versions: 1 2 3 4 5 6 7 8 9 10 11 12 13 14 15 16 17 18 19 20 21 22 23 24 25 26 27

000
ASUS45 KBOU 020507
RWRCO

WEATHER ROUNDUP FOR COLORADO
NATIONAL WEATHER SERVICE DENVER/BOULDER CO
1000 PM MST THU DEC 01 2016

NOTE: "FAIR" INDICATES FEW OR NO CLOUDS BELOW 12000 FEET WITH NO
SIGNIFICANT WEATHER AND/OR OBSTRUCTIONS TO VISIBILITY.

COZ001>005-013-030-031-020600-
...NORTHWEST COLORADO...

CITY           SKY/WX    TMP DP  RH WIND       PRES   REMARKS
CRAIG          LGT SNOW  24  20  84 CALM      30.03R FOG
HAYDEN         FAIR      21  18  86 CALM      30.01S
MEEKER         FLURRIES  23  20  88 CALM      30.01S
MOUNT WERNER   NOT AVBL
STEAMBOAT SPGS CLOUDY    20  19  94 CALM      30.00S
WALDEN           N/A     16  12  86 CALM      29.98R
$$

COZ006>008-011-020600-
...WEST CENTRAL VALLEYS...

CITY           SKY/WX    TMP DP  RH WIND       PRES   REMARKS
GRAND JUNCTION CLOUDY    30  22  72 CALM      30.01S
MONTROSE       FAIR      24  17  74 SE8       30.02F WCI  15
EAGLE          CLOUDY    25  19  78 CALM      30.03R
RIFLE          CLOUDY    27  22  81 CALM      30.02S
DELTA          NOT AVBL
NUCLA          MOCLDY    27  18  69 E7        30.01S WCI  19
$$

COZ017>023-064>068-020600-
...SOUTHWEST COLORADO...

CITY           SKY/WX    TMP DP  RH WIND       PRES   REMARKS
DURANGO        FAIR      21  15  78 CALM      29.96F
CORTEZ         FAIR      16  13  88 E5        29.97S WCI   9
PAGOSA SPRINGS MOCLDY    20  16  85 CALM      29.97S
TELLURIDE      MOCLDY    19  12  77 CALM      29.95S
WOLF CREEK PAS CLOUDY    10   9  92 SW5       29.97S WCI   2
$$

COZ009-010-012-014-032>034-037-058>063-020600-
...CENTRAL COLORADO...

CITY           SKY/WX    TMP DP  RH WIND       PRES   REMARKS
ASPEN          CLOUDY    17  13  84 SW7       29.96F WCI   8
BUENA VISTA    CLOUDY    18   6  59 CALM      29.96R
COPPER MTN     FAIR      12   5  73 MISG      29.89S
BERTHOUD PASS  MOCLDY     5  -8  56 W12       29.88S WCI -11
COTTONWOOD PAS FAIR      23   9  54 CALM      29.93R
GUNNISON       FAIR      11   7  84 CALM      29.99S
KREMMLING      LGT SNOW  23  19  86 CALM      30.01R
LEADVILLE      FAIR       7   3  84 N5        29.91S WCI  -2
MONARCH PASS   CLOUDY     9   5  85 W14       30.00S WCI  -8
SALIDA         CLOUDY    27   4  38 SE6       30.04S WCI  20
SUNLIGHT       CLOUDY   N/A N/A N/A S3        29.96S
WILKERSON PASS CLOUDY    12   5  73 S5        29.94S WCI   4
$$

COZ069>075-020600-
...SAN LUIS VALLEY/SANGRE DE CRISTO MOUNTAINS...

CITY           SKY/WX    TMP DP  RH WIND       PRES   REMARKS
ALAMOSA        FAIR       6   3  87 NW3       29.97S
LA VETA PASS   FAIR      16   9  73 NE16      29.94S WCI   0
SAGUACHE       FAIR      16   9  73 NW5       29.98S WCI   9
$$

COZ035-036-038>040-020600-
...NORTHERN COLORADO FRONT RANGE...

CITY           SKY/WX    TMP DP  RH WIND       PRES   REMARKS
DENVER INTL AP MOCLDY    26   9  48 SE7       29.99R WCI  18
DMNS CITY PARK   N/A     27   9  46 N3        30.00R
AURORA         CLOUDY    27   9  46 SE6       30.00R WCI  21
FRONT RANGE AP NOT AVBL
ERIE MUNI ARPT MOCLDY    24  15  69 CALM      30.02R
BOULDER MUN AP FAIR      30  10  43 CALM      30.01R
CENTENNIAL     MOCLDY    27  10  49 W5        29.98R WCI  22
BROOMFIELD     PTCLDY    28   9  43 NW7       30.00R WCI  21
FORT COLLINS   FAIR      27  10  50 E7        30.02S WCI  19
LONGMONT       FAIR      26  10  52 NW5       30.04R WCI  20
$$

COZ041-046-047-076>085-087-088-020600-
...PIKES PEAK/PALMER DIVIDE AND SOUTHERN FOOTHILLS...

CITY           SKY/WX    TMP DP  RH WIND       PRES   REMARKS
COLO. SPRINGS  MOCLDY    20   2  45 CALM      30.00R
A. F. ACADEMY  MOCLDY    18   5  56 N6        29.99R WCI  10
SCHRIEVER AFB  NOT AVBL
ELLICOTT       CLOUDY   N/A N/A N/A S3        29.99R
FALCON         FAIR      22   6  49 CALM      30.00R
FORT CARSON    FAIR      24   4  42 N3        29.99R
LIMON          MOCLDY     9   5  84 N7        30.03R WCI  -2
MONUMENT HILL  CLOUDY    21   5  49 SW8       29.99R WCI  12
TRINIDAD       FAIR      18   5  57 NW9       29.99R WCI   7
$$

COZ042>045-048>051-090-091-020600-
...NORTHEAST COLORADO...

CITY           SKY/WX    TMP DP  RH WIND       PRES   REMARKS
GREELEY ARPT   FAIR      25  12  58 S3        30.04R
AKRON          FAIR      27  15  61 NW9       30.02R WCI  18
BURLINGTON     MOCLDY    19   7  59 W10       30.04R WCI   7
WRAY           NOT AVBL
STERLING       FAIR      21  16  79 CALM      30.03R
HOLYOKE        FAIR      21  12  68 W9        30.04R WCI  11
FORT MORGAN    CLOUDY    29  16  59 N10       30.03R WCI  20
$$

COZ086-089-092>099-020600-
...SOUTHEAST COLORADO...

CITY           SKY/WX    TMP DP  RH WIND       PRES   REMARKS
PUEBLO         MOCLDY    20  10  65 CALM      30.02R
LA JUNTA       FAIR      23  12  62 N6        30.02R WCI  16
LAMAR          FAIR      20   8  60 CALM      30.03R
SPRINGFIELD      N/A     21   7  54 CALM      30.01S
$$




USA.gov is the U.S. government's official web portal to all federal, state and local government web resources and services.